Terminal Aerodrome Forecast
Issued by NWS Grand Forks, ND

Home | Current Version | Previous Version | Graphics & Text | Print | Product List | Glossary On
Versions: 1 2 3 4 5 6 7 8 9 10 11 12
000
FTUS43 KFGF 110500
TAFFAR
TAF
KFAR 110520Z 1106/1206 VRB06KT P6SM SCT050
      TEMPO 1106/1108 BKN050
     FM111500 27008KT P6SM SCT250
     FM111800 32008KT P6SM SCT250=

USA.gov is the U.S. government's official web portal to all federal, state and local government web resources and services.